Location: Celina Division
(33.3022°N, 96.7580°W)
Time: 14:20:53
(UTC+00:00)

SJ 16-02 - Visible Passes

Search period start: 25 June 2022 00:00
Search period end: 05 July 2022 00:00
Orbit: 604 x 615 km, 75.0° (Epoch: 25 June)

Date Brightness Start Highest point End Pass type
(mag) Time Alt. Az. Time Alt. Az. Time Alt. Az.
25 Jun 2.6 07:54:31 10° N 07:57:57 40° NE 07:57:57 40° NE visible
26 Jun 2.5 08:08:48 10° NNW 08:11:37 39° NNW 08:11:37 39° NNW visible
27 Jun 4.0 06:46:36 10° NNE 06:48:26 14° ENE 06:48:26 14° ENE visible
27 Jun 3.1 08:23:26 10° NNW 08:25:21 23° NW 08:25:21 23° NW visible
28 Jun 3.5 06:59:50 10° N 07:02:13 22° NE 07:02:13 22° NE visible
28 Jun 3.8 08:38:34 10° NW 08:39:09 13° NW 08:39:09 13° NW visible
29 Jun 3.3 07:13:47 10° N 07:16:04 28° N 07:16:04 28° N visible
30 Jun 3.4 07:28:07 10° NNW 07:29:56 24° NNW 07:29:56 24° NNW visible
01 Jul 4.0 06:05:36 10° NNE 06:06:56 14° NE 06:06:56 14° NE visible
01 Jul 3.7 07:42:50 10° NNW 07:43:52 16° NW 07:43:52 16° NW visible
02 Jul 3.7 06:19:01 10° N 06:20:53 20° NNE 06:20:53 20° NNE visible
03 Jul 3.5 06:33:02 10° N 06:34:52 24° N 06:34:52 24° N visible
04 Jul 3.7 06:47:26 10° NNW 06:48:54 20° NNW 06:48:54 20° NNW visible
